TimeEST,TemperatureF,Dew PointF,Humidity,Sea Level PressureIn,VisibilityMPH,Wind Direction,Wind SpeedMPH,Gust SpeedMPH,PrecipitationIn,Events,Conditions,WindDirDegrees,DateUTC
12:00 AM,34.7,33.4,95,30.36,10.0,Calm,Calm,-,N/A,,Clear,0,2012-12-01 05:00:00
12:20 AM,34.9,33.4,94,30.36,10.0,Calm,Calm,-,N/A,,Clear,0,2012-12-01 05:20:00
12:40 AM,34.0,32.9,96,30.37,10.0,Calm,Calm,-,N/A,,Clear,0,2012-12-01 05:40:00
1:05 AM,33.8,32.9,96,30.37,10.0,Calm,Calm,-,N/A,,Clear,0,2012-12-01 06:05:00
1:25 AM,33.8,33.1,97,30.36,10.0,Calm,Calm,-,N/A,,Clear,0,2012-12-01 06:25:00
1:45 AM,34.9,33.4,94,30.36,10.0,Calm,Calm,-,N/A,,Clear,0,2012-12-01 06:45:00
2:05 AM,34.3,33.6,97,30.36,7.0,Calm,Calm,-,N/A,,Clear,0,2012-12-01 07:05:00
2:30 AM,35.8,34.9,97,30.36,7.0,Calm,Calm,-,N/A,,Scattered Clouds,0,2012-12-01 07:30:00
2:50 AM,36.5,34.9,94,30.37,10.0,NW,3.5,-,N/A,,Mostly Cloudy,320,2012-12-01 07:50:00
3:10 AM,36.5,35.1,95,30.37,7.0,Calm,Calm,-,N/A,,Mostly Cloudy,0,2012-12-01 08:10:00
3:30 AM,36.1,35.1,96,30.36,10.0,Calm,Calm,-,N/A,,Clear,0,2012-12-01 08:30:00
3:55 AM,34.2,33.6,98,30.35,7.0,Calm,Calm,-,N/A,,Clear,0,2012-12-01 08:55:00
4:15 AM,34.0,33.8,99,30.35,7.0,Calm,Calm,-,N/A,,Clear,0,2012-12-01 09:15:00
4:35 AM,33.4,33.4,100,30.37,5.0,Calm,Calm,-,N/A,,Clear,0,2012-12-01 09:35:00
4:55 AM,33.1,33.1,100,30.38,7.0,Calm,Calm,-,N/A,,Clear,0,2012-12-01 09:55:00
5:20 AM,32.5,32.5,100,30.38,5.0,Calm,Calm,-,N/A,,Clear,0,2012-12-01 10:20:00
5:40 AM,32.9,32.9,100,30.38,5.0,Calm,Calm,-,N/A,,Clear,0,2012-12-01 10:40:00
6:00 AM,32.0,32.0,100,30.39,5.0,Calm,Calm,-,N/A,,Clear,0,2012-12-01 11:00:00
6:20 AM,32.2,32.2,100,30.40,4.0,Calm,Calm,-,N/A,,Clear,0,2012-12-01 11:20:00
6:45 AM,32.0,32.0,100,30.40,4.0,Calm,Calm,-,N/A,,Clear,0,2012-12-01 11:45:00
7:05 AM,32.0,32.0,100,30.41,3.0,Calm,Calm,-,N/A,,Clear,0,2012-12-01 12:05:00
7:25 AM,32.0,32.0,100,30.42,4.0,Calm,Calm,-,N/A,,Scattered Clouds,0,2012-12-01 12:25:00
8:30 AM,39.6,39.6,100,30.44,2.0,North,4.6,-,N/A,,Overcast,350,2012-12-01 13:30:00
8:50 AM,41.0,41.0,100,30.44,1.5,ENE,4.6,-,N/A,,Overcast,60,2012-12-01 13:50:00
9:10 AM,41.5,41.5,100,30.45,2.0,NE,5.8,-,N/A,,Overcast,40,2012-12-01 14:10:00
9:35 AM,42.1,41.7,99,30.44,2.5,Calm,Calm,-,N/A,,Overcast,0,2012-12-01 14:35:00
9:55 AM,42.8,41.9,97,30.46,2.5,North,6.9,-,N/A,,Overcast,360,2012-12-01 14:55:00
10:15 AM,43.3,42.3,96,30.46,3.0,North,5.8,-,N/A,,Overcast,360,2012-12-01 15:15:00
10:35 AM,43.9,42.4,95,30.46,3.0,NE,3.5,-,N/A,,Overcast,40,2012-12-01 15:35:00
11:00 AM,44.6,42.4,92,30.45,4.0,NNE,4.6,-,N/A,,Overcast,20,2012-12-01 16:00:00
11:20 AM,45.0,42.6,91,30.44,4.0,Calm,Calm,-,N/A,,Overcast,0,2012-12-01 16:20:00
11:40 AM,45.9,43.0,90,30.42,4.0,Calm,Calm,-,N/A,,Overcast,0,2012-12-01 16:40:00
12:00 PM,46.6,42.8,87,30.43,5.0,NNE,5.8,-,N/A,,Overcast,20,2012-12-01 17:00:00
12:25 PM,47.3,43.0,85,30.43,5.0,North,4.6,-,N/A,,Overcast,10,2012-12-01 17:25:00
12:45 PM,47.5,43.2,85,30.42,4.0,NE,4.6,-,N/A,,Overcast,40,2012-12-01 17:45:00
1:05 PM,48.2,43.3,83,30.40,5.0,Calm,Calm,-,N/A,,Mostly Cloudy,0,2012-12-01 18:05:00
1:25 PM,49.3,43.3,80,30.39,5.0,Calm,Calm,-,N/A,,Scattered Clouds,0,2012-12-01 18:25:00
2:10 PM,51.1,43.9,76,30.38,5.0,Calm,Calm,-,N/A,,Clear,0,2012-12-01 19:10:00
2:30 PM,51.8,43.7,74,30.38,5.0,Calm,Calm,-,N/A,,Clear,0,2012-12-01 19:30:00
2:50 PM,51.8,43.7,74,30.38,5.0,Calm,Calm,-,N/A,,Clear,0,2012-12-01 19:50:00
3:15 PM,52.2,43.5,72,30.38,7.0,Calm,Calm,-,N/A,,Clear,0,2012-12-01 20:15:00
3:35 PM,52.0,43.7,73,30.38,7.0,Calm,Calm,-,N/A,,Clear,0,2012-12-01 20:35:00
3:55 PM,51.8,43.5,73,30.38,7.0,Calm,Calm,-,N/A,,Clear,0,2012-12-01 20:55:00
4:15 PM,51.3,43.3,74,30.38,7.0,Calm,Calm,-,N/A,,Clear,0,2012-12-01 21:15:00
4:40 PM,49.5,43.0,78,30.39,7.0,Calm,Calm,-,N/A,,Clear,0,2012-12-01 21:40:00
5:00 PM,46.9,42.4,84,30.39,7.0,Calm,Calm,-,N/A,,Clear,0,2012-12-01 22:00:00
5:20 PM,45.9,41.9,86,30.39,7.0,Calm,Calm,-,N/A,,Clear,0,2012-12-01 22:20:00
5:40 PM,44.4,41.7,90,30.39,7.0,Calm,Calm,-,N/A,,Clear,0,2012-12-01 22:40:00
6:05 PM,42.3,41.4,97,30.40,5.0,Calm,Calm,-,N/A,,Clear,0,2012-12-01 23:05:00
6:25 PM,41.4,41.4,100,30.41,4.0,Calm,Calm,-,N/A,,Clear,0,2012-12-01 23:25:00
6:45 PM,41.4,41.0,99,30.41,5.0,Calm,Calm,-,N/A,,Clear,0,2012-12-01 23:45:00
7:05 PM,40.5,40.3,99,30.41,4.0,Calm,Calm,-,N/A,,Clear,0,2012-12-02 00:05:00
7:50 PM,38.7,38.7,100,30.41,2.0,Calm,Calm,-,N/A,,Clear,0,2012-12-02 00:50:00
8:10 PM,38.8,38.8,100,30.42,1.5,Calm,Calm,-,N/A,,Unknown,0,2012-12-02 01:10:00
8:55 PM,37.6,37.6,100,30.41,1.5,Calm,Calm,-,N/A,,Mostly Cloudy,0,2012-12-02 01:55:00
9:15 PM,37.4,37.4,100,30.41,2.5,Calm,Calm,-,N/A,,Overcast,0,2012-12-02 02:15:00
9:35 PM,39.9,39.9,100,30.41,2.5,Calm,Calm,-,N/A,,Overcast,0,2012-12-02 02:35:00
9:55 PM,40.6,40.6,100,30.41,3.0,Calm,Calm,-,N/A,,Overcast,0,2012-12-02 02:55:00
10:20 PM,40.3,40.3,100,30.40,3.0,Calm,Calm,-,N/A,,Mostly Cloudy,0,2012-12-02 03:20:00
11:00 PM,39.0,39.0,100,30.40,2.5,Calm,Calm,-,N/A,,Mostly Cloudy,0,2012-12-02 04:00:00
11:45 PM,38.5,38.5,100,30.41,2.0,Calm,Calm,-,N/A,,Overcast,0,2012-12-02 04:45:00